www.pogodaiklimat.ru

Погода и климат >> Архив погоды >> Испания >> Овьедо


ПОГОДА в Овьедо

  • Прогноз погоды в Овьедо
  • Монитор погоды в Овьедо

АРХИВ ПОГОДЫ в Овьедо

Время (UTC), дата Ветер
(напр.,м/с)
 
Видим.   Явления Облачность Т
(С)
Тd
(С)
f
(%)
Тe
(С)
Тes
(С)
Комфортность P
(гПа)
Po
(гПа)
Тmin
(С)
Tmax
(С)
R
(мм)
R24
(мм)
S
(см)
13 18.06 СВ 3 14 км н/о +20.3 +14.4 69 +23 +23 комфорт 1009.3 970.6
14 18.06 СВ 4 14 км н/о +19.8 +14.4 71 +22 +22 комфорт 1009.3 970.6
15 18.06 СВ 4 15 км 9/3 1000 м
[Sc Ac As]
+20.0 +15.0 73 +22 +25 комфорт 1009.1 970.4
16 18.06 В 2 20 км н/о +20.8 +12.2 58 +24 +24 комфорт 1008.9 970.3
17 18.06 В 2 13 км в посл. час дождь н/о +19.4 +13.3 68 +21 +21 комфорт 1009.3 970.5 0.2
18 18.06 СВ 3 20 км {ливн. осадки} 9/0 1500 м
[Ac As]
+18.0 +11.1 64 +18 +19 1010.9 971.8 +22.4 0.2
19 18.06 В 2 20 км слаб. морось н/о +17.0 +12.5 75 +17 +17 1011.2 972.0 0.4
20 18.06 СВ 1 15 км слаб. морось н/о +16.1 +13.0 82 +17 +17 1011.4 972.1 0.0
21 18.06 З 2 15 км в посл. час ливневой дождь 9/4 600 м
[Cu Sc Ac As]
+14.8 +13.7 93 +14 +14 1012.4 972.9 0.4
22 18.06 З 2 11 км в посл. час морось н/о +14.6 +13.5 93 +14 +14 1012.6 973.0 0.0
23 18.06 Ю 1 9000 м в посл. час дождь н/о +14.3 +13.3 94 +15 +15 1012.3 972.7 0.2
00 19.06 З 1 12 км дымка н/о +14.4 +13.4 94 +15 +15 1012.2 972.6 0.2
01 19.06 ЮЗ 2 9000 м слаб. дождь н/о +14.6 +13.6 94 +14 +14 1012.0 972.5 0.0
02 19.06 Ю 2 12 км в посл. час дождь н/о +14.1 +13.5 96 +14 +14 1012.0 972.4 0.0
03 19.06 Ю 2 12 км н/о +13.9 +13.3 96 +13 +13 1012.0 972.4 0.0
04 19.06 Ю 1 12 км н/о +13.5 +12.7 95 +14 +14 1012.5 972.8
05 19.06 Ю 3 11 км н/о +13.5 +12.9 96 +12 +12 1012.9 973.2
06 19.06 ЮВ 1 15 км 9/9 600 м
[Cu Sc]
+14.5 +13.4 93 +15 +15 1013.2 973.6 +13.4
07 19.06 Ю 2 12 км н/о +14.5 +13.7 95 +14 +14 1013.8 974.2
08 19.06 З 1 10 км н/о +14.5 +13.7 95 +15 +15 1014.0 974.4
09 19.06 СЗ 2 15 км 9/9 600 м
[Cu Sc Ci fib]
+15.3 +14.2 93 +15 +17 1014.1 974.6
10 19.06 СЗ 1 19 км н/о +18.4 +13.9 75 +20 +20 1014.0 974.9
11 19.06 СЗ 2 20 км н/о +19.9 +13.1 65 +22 +22 комфорт 1013.8 974.9
12 19.06 С 4 20 км 10/10 600 м
[Cu Sc]
+19.6 +14.8 74 +22 +22 комфорт 1014.2 975.3
13 19.06 СВ 3 20 км н/о +19.8 +13.9 69 +22 +22 комфорт 1014.5 975.6
14 19.06 СВ 3 19 км в посл. час дождь н/о +18.3 +14.6 79 +19 +19 1014.9 975.8 0.0
15 19.06 СВ 4 20 км 10/6 600 м
[Sc Ac As]
+18.0 +14.1 78 +18 +19 1015.2 976.0 0.0
16 19.06 СВ 3 20 км н/о +17.9 +14.2 79 +18 +18 1015.5 976.3
17 19.06 СВ 3 19 км н/о +17.3 +13.8 80 +17 +17 1015.9 976.6
18 19.06 С 3 20 км 10/8 600 м
[Sc Ac As]
+15.7 +13.4 86 +15 +15 1016.8 977.2 +20.8
19 19.06 С 2 12 км слаб. морось н/о +14.9 +13.4 91 +15 +15 1017.3 977.6 0.0
20 19.06 СЗ 1 3000 м морось н/о +14.3 +13.8 97 +15 +15 1017.6 977.8 0.0
21 19.06 Ю 1 10 км в посл. час морось 10/10 300 м
[Frnb]
+14.3 +13.8 97 +15 +15 1018.2 978.4 0.2
22 19.06 ЮВ 1 2900 м слаб. морось с дождем н/о +14.4 +13.9 97 +15 +15 1018.4 978.6 0.2
23 19.06 Ю 2 5000 м слаб. морось н/о +14.4 +14.1 98 +14 +14 1018.3 978.5 0.0
00 20.06 Ю 1 14 км в посл. час морось н/о +14.2 +13.7 97 +15 +15 1018.2 978.4 0.2
01 20.06 Ю 1 н/о слаб. морось н/о +14.2 +13.7 97 +14 +14 1018.1 978.3 0.0
02 20.06 СЗ 1 700 м в посл. час морось н/о +14.0 +13.7 98 +15 +15 1018.1 978.2 0.0
03 20.06 В 1 н/о слаб. дождь {морось} н/о +13.9 +13.7 99 +14 +14 1017.9 978.0 0.0
04 20.06 ЮВ 1 3200 м морось н/о +14.0 +13.8 99 +14 +14 1017.7 977.9 0.8
05 20.06 СВ 1 4000 м в посл. час морось н/о +13.9 +13.7 99 +15 +15 1017.9 978.0 0.0
06 20.06 В 2 7000 м слаб. морось 10/6 600 м
[Frnb As op]
+13.7 +13.4 98 +13 +13 1017.9 978.0 +13.6 0.8
07 20.06 В 2 10 км в посл. час морось н/о +14.5 +13.9 96 +14 +14 1017.9 978.1 0.0
08 20.06 СВ 2 7000 м слаб. морось н/о +14.2 +13.7 97 +14 +14 1017.9 978.1 0.0
09 20.06 СВ 2 12 км {морось} 10/5 600 м
[Frnb As trans]
+14.6 +13.6 94 +14 +16 1018.0 978.2 0.0
10 20.06 СВ 3 12 км в посл. час морось н/о +14.7 +13.2 91 +14 +14 1018.2 978.4 0.0
11 20.06 СВ 4 19 км в посл. час морось н/о +15.2 +13.6 90 +14 +14 1018.2 978.5 0.0
12 20.06 СВ 3 17 км {морось} 10/5 600 м
[Frnb As trans]
+15.2 +13.4 89 +14 +18 1018.3 978.6 0.0
13 20.06 СВ 3 8000 м слаб. морось н/о +14.5 +13.4 93 +14 +14 1018.2 978.4 0.0
14 20.06 СВ 3 19 км слаб. морось н/о +15.0 +13.2 89 +14 +14 1018.0 978.3 0.0
15 20.06 СВ 3 5000 м морось 10/8 600 м
[Frnb As trans]
+14.5 +13.5 94 +13 +14 1018.2 978.4 0.2
16 20.06 СВ 3 10 км слаб. морось н/о +14.5 +13.4 93 +14 +14 1018.3 978.5 0.0
17 20.06 СВ 2 3800 м морось н/о +13.9 +13.4 97 +13 +13 1018.7 978.8 0.4
18 20.06 С 2 3000 м морось 10/6 300 м
[Frnb As op]
+13.7 +13.2 97 +13 +13 1018.8 978.9 +15.7 1
19 20.06 СЗ 1 4000 м слаб. морось с дождем н/о +13.3 +13.0 98 +14 +14 1019.1 979.1 0.4
20 20.06 З 1 300 м слаб. дождь н/о +13.1 +12.9 99 +13 +13 1019.3 979.3 1
21 20.06 СЗ 1 300 м морось {туман} 10/6 300 м
[Frnb As op]
+13.0 +13.0 100 +13 +13 1019.7 979.6 2
22 20.06 В 2 3900 м слаб. морось с дождем н/о +13.0 +13.0 100 +12 +12 1020.0 979.9 1
23 20.06 СВ 1 8000 м слаб. дождь н/о +12.9 +12.9 100 +14 +14 1020.1 980.0 0.2
00 21.06 З 2 100 м морось {дождь} н/о +12.8 +12.8 100 +12 +12 1019.9 979.8 1
01 21.06 З 1 100 м слаб. дождь н/о +12.7 +12.7 100 +13 +13 1019.8 979.7 0.2
02 21.06 СВ 1 2600 м слаб. морось с дождем н/о +12.7 +12.7 100 +13 +13 1019.7 979.6 2
03 21.06 СВ 1 4100 м слаб. дождь н/о +12.7 +12.7 100 +13 +13 1019.7 979.6 4
04 21.06 СВ 2 н/о н/о +12.6 +12.6 100 +12 +12 1019.7 979.6 2
05 21.06 СВ 3 7000 м слаб. дождь н/о +12.5 +12.5 100 +11 +11 1020.1 979.9 0.4
06 21.06 СВ 3 2000 м слаб. дождь {морось} 10/10 200 м
[Frnb]
+12.6 +12.6 100 +11 +11 1020.5 980.3 +12.4 3
07 21.06 СВ 5 3200 м слаб. морось с дождем н/о +12.2 +12.2 100 +10 +10 1021.1 980.9 1
08 21.06 СВ 2 4900 м морось н/о +12.5 +12.3 99 +11 +11 1021.4 981.2 0.2
09 21.06 В 3 10 км в посл. час морось 10/6 300 м
[Frnb As op]
+13.2 +12.7 97 +12 +13 1021.4 981.3 1
10 21.06 В 2 20 км н/о +15.0 +13.0 88 +15 +15 1021.3 981.4
11 21.06 СВ 2 20 км н/о +15.9 +12.6 81 +16 +16 1020.9 981.2
12 21.06 СВ 4 20 км {морось} 9/9 600 м
[Cu Sc]
+16.9 +13.0 78 +17 +18 1020.5 980.9
13 21.06 СВ 4 20 км н/о +17.4 +13.1 76 +17 +17 1019.9 980.4
14 21.06 СВ 4 20 км н/о +16.6 +12.7 78 +16 +16 1019.9 980.3
15 21.06 СВ 3 20 км 9/4 600 м
[Cu Sc Ac As]
+17.6 +13.3 76 +18 +20 1019.4 980.0
16 21.06 СВ 3 20 км н/о +17.4 +13.3 77 +17 +17 1019.8 980.3
17 21.06 СВ 4 20 км н/о +16.2 +12.6 79 +15 +15 1019.5 979.9
18 21.06 СВ 3 20 км 10/4 600 м
[Cu Sc Ac As]
+16.2 +12.7 80 +16 +16 1019.7 980.1 +17.7
19 21.06 В 2 20 км н/о +16.0 +12.9 82 +16 +16 1020.0 980.3
20 21.06 В 3 20 км н/о +15.1 +12.6 85 +14 +14 1019.9 980.1
21 21.06 В 3 20 км 4/1 600 м
[Sc Ac As Ci fib]
+14.1 +12.3 89 +13 +13 1020.0 980.1
22 21.06 В 2 20 км н/о +13.4 +12.1 92 +13 +13 1019.9 979.9
23 21.06 В 2 18 км н/о +13.1 +12.2 94 +12 +12 1019.2 979.2
00 22.06 В 1 15 км н/о +12.7 +11.9 95 +13 +13 1018.8 978.7
01 22.06 В 1 7000 м н/о +12.2 +11.6 96 +12 +12 1018.0 977.9
02 22.06 ЮВ 2 н/о н/о +11.9 +11.6 98 +11 +11 1017.3 977.2
03 22.06 Ю 1 100 м н/о +12.3 +12.1 99 +13 +13 1017.0 976.9
04 22.06 ЮВ 2 100 м н/о +12.1 +12.1 100 +11 +11 1016.3 976.2
05 22.06 Ю 1 100 м н/о +12.1 +12.1 100 +12 +12 1016.0 975.9
06 22.06 ЮВ 3 1000 м дымка 9/4 300 м
[St Ac As]
+12.2 +12.2 100 +11 +11 1015.6 975.6 +11.8
07 22.06 ЮВ 1 14 км н/о +13.8 +13.8 100 +14 +14 1015.1 975.3
08 22.06 В 1 19 км н/о +16.8 +14.1 84 +18 +18 1014.0 974.7
09 22.06 Ю 1 20 км 9/0
[Ac As]
+21.2 +14.4 65 +24 +29 комфорт 1013.0 974.3
10 22.06 В 1 20 км н/о +23.4 +13.3 53 +27 +27 душно 1012.4 974.0
11 22.06 ЮВ 2 20 км н/о +26.8 +13.5 44 +29 +29 жарко 1011.8 973.8
12 22.06 ЮВ 3 20 км 9/0 1500 м
[Ac As Cs]
+28.0 +12.4 38 +29 +38 жарко 1011.0 973.2
13 22.06 ЮВ 2 20 км н/о +28.8 +10.9 33 +29 +29 жарко 1010.3 972.6
14 22.06 Ю 2 20 км н/о +29.5 +12.0 34 +30 +30 жарко 1009.6 972.0 0.0
15 22.06 В 2 20 км 9/1 600 м
[Cu hum Ac As Ci sp]
+27.8 +15.5 47 +31 +38 душно 1009.1 971.4 0.0
16 22.06 В 2 20 км н/о +25.6 +15.0 52 +28 +28 жарко 1009.6 971.6
17 22.06 ЮВ 2 20 км н/о +26.3 +14.7 49 +29 +29 жарко 1009.4 971.5 0.0
18 22.06 З 3 20 км 9/0 1500 м
[Ac As Cs]
+25.6 +14.1 49 +28 +29 жарко 1009.8 971.8 +29.6
19 22.06 СЗ 2 20 км н/о +21.9 +13.0 57 +25 +25 комфорт 1010.7 972.2
20 22.06 С 2 20 км н/о +20.7 +12.7 60 +24 +24 комфорт 1010.9 972.2
21 22.06 В 2 15 км 9/0
[Ac As Ci sp]
+19.8 +13.5 67 +22 +22 комфорт 1011.4 972.6
22 22.06 В 2 20 км н/о +18.8 +13.6 72 +20 +20 1011.3 972.3
23 22.06 В 1 19 км в посл. час дождь н/о +18.1 +14.2 78 +19 +19 1010.5 971.5 0.0
00 23.06 З 1 20 км дымка н/о +17.8 +14.5 81 +19 +19 1010.1 971.1 0.0
01 23.06 З 1 19 км слаб. дождь н/о +17.3 +14.4 83 +19 +19 1009.5 970.4 0.0
02 23.06 З 3 12 км слаб. дождь н/о +16.2 +14.4 89 +16 +16 1010.4 971.1 0.0
03 23.06 СЗ 4 20 км в посл. час дождь н/о +16.2 +14.2 88 +15 +15 1010.7 971.4 0.0
04 23.06 Ю 2 9000 м н/о +17.2 +13.7 80 +18 +18 1010.8 971.7
05 23.06 В 1 14 км слаб. дождь н/о +16.8 +13.1 79 +18 +18 1010.6 971.4 0.0
06 23.06 В 2 17 км в посл. час дождь 9/3 600 м
[Sc Ac As Ci fib]
+16.6 +13.9 84 +17 +17 1009.9 970.7 +15.7 0.0
07 23.06 СЗ 2 20 км н/о +16.3 +14.5 89 +17 +17 1010.4 971.2
08 23.06 СВ 1 18 км н/о +17.7 +13.6 77 +19 +19 1010.5 971.4
09 23.06 СЗ 3 5000 м слаб. дождь 10/8 600 м
[St Ac As]
+16.2 +15.2 94 +16 +17 1012.0 972.7 0.0
11 23.06 Ю 1 9000 м слаб. дождь н/о +17.1 +16.0 93 +19 +19 1012.8 973.6
12 23.06 ЮВ 2 12 км {дождь} 9/3 600 м
[Sc Ac As Cs]
+20.8 +17.2 80 +25 +33 комфорт 1011.2 972.6 5
13 23.06 В 1 20 км н/о +20.9 +17.3 80 +26 +26 душно 1011.1 972.5
14 23.06 В 2 10 км слаб. дождь н/о +19.7 +17.7 88 +23 +23 комфорт 1011.7 972.9 0.4
15 23.06 В 3 10 км {дождь} 9/4 600 м
[Cu Sc Ac As Cs]
+20.8 +18.6 87 +25 +29 комфорт 1011.5 972.9 0.6
16 23.06 СВ 2 6000 м слаб. дождь н/о +19.4 +17.5 89 +22 +22 комфорт 1011.7 972.9 1
17 23.06 В 3 3700 м слаб. дождь н/о +18.0 +16.5 91 +18 +18 1012.3 973.2 2
18 23.06 В 2 8000 м в посл. час дождь 9/5 600 м
[Sc Ac As Ci fib]
+17.1 +16.5 96 +17 +18 1012.5 973.3 +21.0 7
19 23.06 В 1 10 км н/о +16.8 +16.2 96 +18 +18 1012.7 973.5
20 23.06 В 2 16 км н/о +16.5 +15.7 95 +17 +17 1012.9 973.6
21 23.06 В 3 19 км {дождь} 9/3 600 м
[Sc Ac As Ci fib]
+15.7 +15.1 96 +15 +15 1013.3 973.9 0.0
22 23.06 В 3 6000 м слаб. дождь н/о +15.5 +15.0 97 +15 +15 1013.8 974.3 0.8
23 23.06 С 2 11 км в посл. час дождь н/о +15.4 +15.1 98 +15 +15 1013.8 974.3 0.0
00 24.06 В 2 12 км в посл. час дождь н/о +15.4 +14.9 97 +15 +15 1013.6 974.1 1
01 24.06 ЮЗ 2 3700 м в посл. час дождь н/о +15.4 +15.1 98 +15 +15 1013.7 974.2 0.4
02 24.06 СЗ 1 4800 м н/о +15.3 +15.3 100 +16 +16 1013.5 974.0
03 24.06 З 2 100 м слаб. дождь н/о +15.1 +15.1 100 +15 +15 1013.3 973.8 0.6
04 24.06 З 1 200 м слаб. дождь н/о +15.0 +15.0 100 +15 +15 1013.4 973.9 0.2
05 24.06 В 1 800 м слаб. дождь н/о +15.0 +15.0 100 +15 +15 1013.5 974.0 2
06 24.06 В 2 100 м туман {дождь} ?/? +15.0 +15.0 100 +15 +15 1013.5 974.0 +14.9 2
07 24.06 Ю 1 200 м н/о +15.1 +15.1 100 +16 +16 1013.7 974.2
08 24.06 З 3 300 м слаб. дождь н/о +15.1 +15.1 100 +14 +14 1014.0 974.5 0.6
09 24.06 СЗ 2 100 м слаб. дождь {туман} 10/8 300 м
[Frnb As op]
+15.3 +15.3 100 +15 +15 1014.2 974.7 1
10 24.06 СЗ 1 700 м слаб. дождь н/о +15.5 +15.5 100 +16 +16 1014.5 975.0 2
11 24.06 СЗ 1 6000 м слаб. дождь н/о +15.9 +15.9 100 +16 +16 1014.5 975.1 0.8
12 24.06 штиль 0 3000 м дождь {туман} 10/6 300 м
[Frnb As op]
+16.2 +16.0 99 +16 +18 1014.9 975.5 5
13 24.06 ЮВ 1 4400 м слаб. дождь н/о +17.0 +16.8 99 +18 +18 1014.6 975.3 3
14 24.06 В 2 3400 м слаб. дождь н/о +16.9 +16.4 97 +17 +17 1014.6 975.3 2
15 24.06 В 2 2000 м слаб. дождь 10/6 300 м
[Frnb As op]
+17.0 +16.8 99 +17 +18 1014.3 975.0 7
16 24.06 В 2 н/о слаб. дождь н/о +17.3 +17.0 98 +18 +18 1014.5 975.3 0.0
17 24.06 В 2 н/о в посл. час дождь н/о +17.4 +17.1 98 +18 +18 1014.8 975.6 0.0
18 24.06 СВ 2 8000 м {дождь} 10/8 300 м
[Frnb Ac As]
+17.0 +16.7 98 +17 +17 1014.6 975.3 +17.5 0.0
19 24.06 В 2 14 км слаб. морось н/о +16.5 +16.2 98 +17 +17 1014.9 975.5 0.6
20 24.06 ЮВ 1 10 км н/о +16.4 +16.1 98 +17 +17 1015.6 976.2
21 24.06 В 1 10 км {дождь} 8/5 600 м
[Frnb Ac As]
+16.0 +15.7 98 +17 +17 1016.0 976.5 0.6
22 24.06 ЮВ 1 1800 м н/о +15.8 +15.6 99 +17 +17 1016.4 976.9
23 24.06 СЗ 2 2900 м н/о +15.8 +15.8 100 +16 +16 1016.2 976.7
00 25.06 З 1 900 м дымка н/о +15.7 +15.7 100 +16 +16 1016.3 976.8
01 25.06 СЗ 2 4400 м н/о +15.6 +15.6 100 +16 +16 1016.3 976.8
02 25.06 В 1 3500 м н/о +15.5 +15.5 100 +16 +16 1016.6 977.0
03 25.06 Ю 1 100 м слаб. морось н/о +15.4 +15.4 100 +17 +17 1016.4 976.8 0.0
05 25.06 В 1 300 м в посл. час морось н/о +15.1 +15.1 100 +16 +16 1016.6 977.0 0.0
06 25.06 ЮВ 1 1200 м дымка {туман} 9/9 300 м
[St]
+15.4 +15.4 100 +16 +16 1016.7 977.1 +15.1 0.0
07 25.06 ЮВ 1 н/о н/о +15.8 +15.8 100 +16 +16 1016.8 977.3
08 25.06 СВ 1 7000 м н/о +16.7 +15.7 94 +18 +18 1017.1 977.7
09 25.06 СВ 1 5000 м дымка 10/10 600 м
[Sc]
+16.9 +15.8 93 +18 +18 1017.2 977.8
10 25.06 В 2 9000 м н/о +17.2 +16.1 93 +18 +18 1017.1 977.7
11 25.06 В 1 9000 м н/о +17.6 +15.9 90 +19 +19 1017.3 978.0

 

Местоположение метеостанции Овьедо (Испания): широта 43.35 долгота -5.87 высота над уровнем моря 339 м.

В архиве по умолчанию представлена погода в Овьедо за последнюю неделю. Архивные данные за месяц целиком и за предыдущие месяцы, начиная с января 2011 года, Вы можете получить, выбрав интересующий диапазон дат из раскрывающегося списка и нажав кнопку "Ввод!".


*Определитесь, кто Вы:
робот инопланетянин человек

Внимание! Время в таблицах - всемирное. Для получения местного времени необходимо прибавить поправку, которая равна 1 ч.

Смотрите также архив погоды в соседних городах и на ближайших метеорологических станциях:

Погода в Авилесе (Испания) (26 км)
Погода в Хихоне (Испания) (27 км)
Погода на Кабо Пеньяс (Испания) (35 км)
Погода в Вальгранде-Пахаресе (Испания) (42 км)
Погода в Пуэрто-де-Сан-Исидро (Испания) (51 км)
Погода на Кабо Бусто (Испания) (54 км)
Погода в Пуэрто-де-Лейтарьегосе (Испания) (59 км)
Погода в Леоне (Испания) (87 км)
Погода в Льянесе (Испания) (91 км)
Погода в Кастрополе (Испания) (95 км)

Пояснения к столбцам:

Ветер - указаны скорость ветра в м/с - средняя за 10 мин, порывы в срок и между сроками (в фигурных скобках) и направление, откуда дует ветер: С - северный, СВ - северо-восточный, В - восточный, ЮВ - юго-восточный, Ю - южный, ЮЗ - юго-западный, З - западный, СЗ - северо-западный.
Видимость - горизонтальная дальность видимости в метрах или километрах. При видимости от 1 до 10 км при отсутствии осадков обычно наблюдается дымка, при ухудшении видимости до 1 км и менее - туман. В сухую погоду видимость может ухудшаться дымом, пылью или мглою.
Явления - указаны атмосферные явления, наблюдавшиеся в срок или в последний час перед сроком; фигурными скобками обозначены явления, наблюдавшиеся между сроками (за 1-3 часа до срока); квадратными скобками обозначены град или гололедные отложения с указанием их диаметра в мм.
Облачность - указаны через наклонную черту общая и нижняя облачность в баллах и высота нижней границы облаков в метрах; квадратными скобками обозначены формы облаков: Ci - перистые, Cs - перисто-слоистые, Cc - перисто-кучевые, Ac - высококучевые, As - высокослоистые, Sc - слоисто-кучевые, Ns - слоисто-дождевые, Cu - кучевые, Cb - кучево-дождевые. Подробнее классификацию облаков см. в Атласе облаков (PDF).
T - Температура воздуха - температура, измеренная на высоте 2 м над землей.
Td - Температура точки росы - температура, при понижении до которой содержащийся в воздухе водяной пар достигнет насыщения.
f - Относительная влажность воздуха - влажноcть воздуха, измеренная на высоте 2 м над землей.
Te - Эффективная температура - температура, которую ощущает одетый по сезону человек в тени. Характеристика душности погоды. При расчете учитывается влияние влажности воздуха и скорости ветра на теплоощущения человека.
Tes - Эффективная температура на солнце - температура, которую ощущает человек, с поправкой на солнечный нагрев. Характеристика знойности погоды. Зависит от высоты солнца над горизонтом, облачности и скорости ветра. Ночью, в пасмурную погоду, а также при ветре 12 м/с и более поправка равна нулю.
P - Атмосферное давление - приведенное к уровню моря атмосферное давление.
Po - Атмосферное давление - измеренное на уровне метеостанции атмосферное давление.
Tmin - Минимальная температура - минимум температуры воздуха на высоте 2 м над землей.
Tmax - Максимальная температура - максимум температуры воздуха на высоте 2 м над землей.
R - Количество осадков - Количество выпавших осадков за период времени, мм. При наведении курсора мыши на число - период времени, за который выпало указанное количество осадков.
R24 - Количество осадков - Количество выпавших осадков за 24 часа, мм.
S - Снежный покров - Высота снежного покрова, см. При наведении курсора мыши на число - состояние снежного покрова и степень покрытия местности в баллах.